HAZ1027 ZPPP-ZSHC

Flight info

Callsign HAZ1027
Flight time N/A
Altitude 33100
Route NODIB1Y NODIB W137 LPS A581 IDGAG W80 XSH DCT JDZ DCT TXN G204 OREXA OREXA81
Aircraft A20N/M-SDE2E3FGHIRWXY/LB1

Departure

Time N/A
Airport Kunming Changshui International Airport (ZPPP)

Arrival

Time 2026-05-04 15:40
Airport Hangzhou Xiaoshan International Airport (ZSHC)
Time Latitude Longitude Altitude Speed Heading
2026-05-04 14:39 29.69199 116.57469 31160 ft 517 kts 130°
2026-05-04 14:40 29.63294 116.67679 31141 ft 516 kts 132°
2026-05-04 14:40 29.61026 116.70806 31145 ft 503 kts 144°
2026-05-04 14:40 29.58370 116.73296 31153 ft 487 kts 157°
2026-05-04 14:41 29.55697 116.74959 31167 ft 472 kts 168°
2026-05-04 14:41 29.52649 116.76214 31080 ft 459 kts 173°
2026-05-04 14:41 29.46555 116.78288 30188 ft 462 kts 175°
2026-05-04 14:42 29.40311 116.80296 29206 ft 464 kts 175°
2026-05-04 14:42 29.37209 116.81271 28699 ft 464 kts 175°
2026-05-04 14:42 29.34109 116.82227 28202 ft 467 kts 174°
2026-05-04 14:43 29.31013 116.83621 27663 ft 489 kts 158°
2026-05-04 14:43 29.28368 116.86131 27155 ft 511 kts 137°
2026-05-04 14:43 29.26439 116.89645 26639 ft 529 kts 117°
2026-05-04 14:43 29.25527 116.93696 26142 ft 535 kts 97°
2026-05-04 14:44 29.25734 116.97990 25639 ft 542 kts 77°
2026-05-04 14:44 29.26978 117.02001 25158 ft 536 kts 64°
2026-05-04 14:44 29.28598 117.05808 24763 ft 529 kts 61°
2026-05-04 14:44 29.30245 117.09554 24454 ft 523 kts 62°
2026-05-04 14:45 29.31818 117.13257 23893 ft 516 kts 63°
2026-05-04 14:45 29.33314 117.16933 23229 ft 511 kts 64°
2026-05-04 14:45 29.34766 117.20628 22811 ft 503 kts 64°
2026-05-04 14:45 29.36175 117.24290 22675 ft 501 kts 65°
2026-05-04 14:46 29.37551 117.27910 22676 ft 503 kts 65°
2026-05-04 14:46 29.38943 117.31596 22672 ft 492 kts 65°
2026-05-04 14:46 29.40266 117.35109 22681 ft 473 kts 65°
2026-05-04 14:46 29.41539 117.38490 22683 ft 463 kts 65°
2026-05-04 14:47 29.42821 117.41898 22676 ft 463 kts 65°
2026-05-04 14:47 29.44084 117.45258 22677 ft 462 kts 65°
2026-05-04 14:47 29.45358 117.48652 22685 ft 463 kts 65°
2026-05-04 14:47 29.46624 117.52022 22461 ft 462 kts 65°
2026-05-04 14:48 29.47893 117.55406 21969 ft 458 kts 65°
2026-05-04 14:48 29.49135 117.58721 21483 ft 452 kts 65°
2026-05-04 14:48 29.50361 117.61999 21009 ft 447 kts 65°
2026-05-04 14:48 29.51575 117.65251 20802 ft 440 kts 65°
2026-05-04 14:49 29.52770 117.68450 20790 ft 441 kts 65°
2026-05-04 14:49 29.53991 117.71722 20801 ft 442 kts 65°
2026-05-04 14:49 29.55100 117.74695 20804 ft 442 kts 65°
2026-05-04 14:49 29.56318 117.77924 20800 ft 442 kts 63°
2026-05-04 14:50 29.57921 117.80855 20793 ft 436 kts 47°
2026-05-04 14:50 29.60138 117.83213 20796 ft 430 kts 31°
2026-05-04 14:50 29.62747 117.84772 20806 ft 422 kts 15°
2026-05-04 14:50 29.65611 117.85467 20815 ft 412 kts 359°
2026-05-04 14:51 29.68413 117.85238 20803 ft 402 kts 342°
2026-05-04 14:51 29.71084 117.84322 20812 ft 397 kts 336°
2026-05-04 14:51 29.73666 117.83242 20809 ft 397 kts 335°
2026-05-04 14:51 29.76254 117.82117 20807 ft 397 kts 334°
2026-05-04 14:52 29.78844 117.80988 20809 ft 397 kts 335°
2026-05-04 14:52 29.81432 117.79857 20813 ft 397 kts 334°
2026-05-04 14:52 29.84016 117.78723 20811 ft 397 kts 334°
2026-05-04 14:52 29.86581 117.77601 20816 ft 397 kts 334°
2026-05-04 14:53 29.89194 117.76458 20818 ft 397 kts 335°
2026-05-04 14:53 29.91762 117.75329 20816 ft 397 kts 334°
2026-05-04 14:53 29.94362 117.74184 20822 ft 397 kts 334°
2026-05-04 14:53 29.96929 117.73050 20824 ft 397 kts 335°
2026-05-04 14:54 29.99489 117.71913 20820 ft 397 kts 334°
2026-05-04 14:54 30.02079 117.70763 20818 ft 397 kts 334°
2026-05-04 14:54 30.04681 117.69609 20818 ft 397 kts 334°
2026-05-04 14:54 30.07229 117.68479 20827 ft 396 kts 335°
2026-05-04 14:55 30.09806 117.67327 20816 ft 396 kts 335°
2026-05-04 14:55 30.12301 117.66203 20811 ft 396 kts 334°
2026-05-04 14:55 30.14726 117.64789 20796 ft 389 kts 321°
2026-05-04 14:55 30.16678 117.62672 20802 ft 382 kts 305°
2026-05-04 14:56 30.17940 117.60125 20810 ft 378 kts 289°
2026-05-04 14:56 30.18507 117.57174 20809 ft 377 kts 273°
2026-05-04 14:56 30.18273 117.54172 20804 ft 379 kts 257°
2026-05-04 14:56 30.17285 117.51422 20794 ft 382 kts 241°
2026-05-04 14:57 30.15716 117.48946 20789 ft 385 kts 229°
2026-05-04 14:57 30.13606 117.47028 20786 ft 392 kts 213°
2026-05-04 14:57 30.11031 117.45865 20786 ft 400 kts 197°
2026-05-04 14:57 30.08244 117.45587 20791 ft 408 kts 181°
2026-05-04 14:58 30.05439 117.46190 20804 ft 415 kts 168°
2026-05-04 14:58 30.02669 117.47221 20798 ft 417 kts 165°
2026-05-04 14:58 29.99924 117.48334 20797 ft 417 kts 165°
2026-05-04 14:58 29.97205 117.49450 20795 ft 417 kts 165°
2026-05-04 14:59 29.94453 117.50586 20789 ft 417 kts 165°
2026-05-04 14:59 29.91737 117.51705 20783 ft 417 kts 165°
2026-05-04 14:59 29.86285 117.53964 20786 ft 418 kts 165°
2026-05-04 15:00 29.83524 117.55112 20794 ft 417 kts 165°
2026-05-04 15:00 29.80789 117.56250 20795 ft 417 kts 165°
2026-05-04 15:00 29.78070 117.57383 20794 ft 417 kts 165°
2026-05-04 15:01 29.72621 117.59657 20789 ft 416 kts 165°
2026-05-04 15:01 29.69877 117.60803 20787 ft 416 kts 165°
2026-05-04 15:01 29.67166 117.61938 20791 ft 414 kts 165°
2026-05-04 15:01 29.64509 117.63062 20787 ft 396 kts 165°
2026-05-04 15:02 29.61957 117.64153 20793 ft 391 kts 165°
2026-05-04 15:02 29.59426 117.65240 20802 ft 390 kts 165°
2026-05-04 15:02 29.56943 117.66579 20779 ft 398 kts 149°
2026-05-04 15:02 29.55008 117.68896 20781 ft 410 kts 125°
2026-05-04 15:03 29.53984 117.71954 20802 ft 417 kts 100°
2026-05-04 15:03 29.54053 117.75265 20806 ft 418 kts 76°
2026-05-04 15:03 29.55118 117.78384 20468 ft 416 kts 61°
2026-05-04 15:03 29.56437 117.81280 20007 ft 412 kts 60°
2026-05-04 15:04 29.57727 117.84178 19819 ft 404 kts 62°
2026-05-04 15:04 29.58963 117.87096 19816 ft 406 kts 63°
2026-05-04 15:04 29.60164 117.90044 19814 ft 406 kts 63°
2026-05-04 15:04 29.61325 117.92967 19814 ft 407 kts 64°
2026-05-04 15:05 29.62489 117.95941 19819 ft 406 kts 64°
2026-05-04 15:05 29.63643 117.98907 19802 ft 404 kts 64°
2026-05-04 15:05 29.64764 118.01804 19520 ft 400 kts 64°
2026-05-04 15:05 29.65891 118.04718 19007 ft 398 kts 64°
2026-05-04 15:06 29.67015 118.07625 18520 ft 396 kts 64°
2026-05-04 15:06 29.68124 118.10500 18029 ft 394 kts 64°
2026-05-04 15:06 29.69231 118.13367 17540 ft 391 kts 64°
2026-05-04 15:07 29.71401 118.18994 16824 ft 378 kts 64°
2026-05-04 15:07 29.72455 118.21747 16816 ft 379 kts 66°
2026-05-04 15:07 29.73243 118.24625 16812 ft 380 kts 77°
2026-05-04 15:07 29.73570 118.27647 16813 ft 382 kts 88°
2026-05-04 15:08 29.73448 118.30697 16818 ft 382 kts 95°
2026-05-04 15:08 29.73162 118.33734 16822 ft 380 kts 96°
2026-05-04 15:08 29.72857 118.36733 16819 ft 380 kts 96°
2026-05-04 15:08 29.72558 118.39765 16816 ft 380 kts 96°
2026-05-04 15:09 29.72271 118.42770 16819 ft 381 kts 96°
2026-05-04 15:09 29.71987 118.45815 16821 ft 381 kts 96°
2026-05-04 15:09 29.71710 118.48824 16824 ft 381 kts 95°
2026-05-04 15:10 29.71154 118.54904 16823 ft 381 kts 95°
2026-05-04 15:10 29.70876 118.57933 16819 ft 382 kts 95°
2026-05-04 15:10 29.70319 118.63993 16818 ft 381 kts 95°
2026-05-04 15:11 29.70040 118.67014 16776 ft 379 kts 96°
2026-05-04 15:11 29.69764 118.69995 16443 ft 375 kts 96°
2026-05-04 15:11 29.69502 118.72865 15967 ft 373 kts 96°
2026-05-04 15:11 29.69235 118.75815 15531 ft 369 kts 96°
2026-05-04 15:12 29.69005 118.78360 15164 ft 366 kts 96°
2026-05-04 15:12 29.68822 118.81149 14737 ft 363 kts 88°
2026-05-04 15:12 29.69365 118.83916 14299 ft 357 kts 67°
2026-05-04 15:12 29.70329 118.86372 13919 ft 352 kts 63°
2026-05-04 15:13 29.71393 118.88894 13478 ft 349 kts 64°
2026-05-04 15:13 29.72415 118.91393 13073 ft 345 kts 64°
2026-05-04 15:13 29.73390 118.93877 12937 ft 344 kts 65°
2026-05-04 15:13 29.74360 118.96423 12936 ft 346 kts 66°
2026-05-04 15:14 29.75306 118.98958 12933 ft 346 kts 66°
2026-05-04 15:14 29.76242 119.01495 12937 ft 346 kts 66°
2026-05-04 15:14 29.77180 119.04059 12932 ft 345 kts 66°
2026-05-04 15:14 29.78099 119.06583 12936 ft 345 kts 66°
2026-05-04 15:15 29.79025 119.09131 12936 ft 345 kts 66°
2026-05-04 15:15 29.79949 119.11675 12934 ft 345 kts 66°
2026-05-04 15:15 29.80878 119.14242 12937 ft 345 kts 66°
2026-05-04 15:16 29.82709 119.19297 12938 ft 344 kts 66°
2026-05-04 15:16 29.83629 119.21845 12936 ft 344 kts 66°
2026-05-04 15:16 29.85464 119.26931 12938 ft 345 kts 66°
2026-05-04 15:17 29.86391 119.29504 12935 ft 345 kts 67°
2026-05-04 15:17 29.88229 119.34610 12933 ft 345 kts 66°
2026-05-04 15:17 29.89146 119.37163 12932 ft 346 kts 66°
2026-05-04 15:18 29.90071 119.39734 12932 ft 346 kts 66°
2026-05-04 15:18 29.90985 119.42274 12931 ft 346 kts 66°
2026-05-04 15:18 29.91904 119.44833 12932 ft 346 kts 66°
2026-05-04 15:19 29.93741 119.49959 12926 ft 346 kts 66°
2026-05-04 15:19 29.94651 119.52498 12707 ft 341 kts 66°
2026-05-04 15:19 29.96458 119.57554 11761 ft 338 kts 66°
2026-05-04 15:20 29.97346 119.60040 11353 ft 335 kts 66°
2026-05-04 15:20 29.98219 119.62486 10940 ft 331 kts 66°
2026-05-04 15:20 29.99088 119.64928 10524 ft 328 kts 66°
2026-05-04 15:20 29.99918 119.67255 10126 ft 325 kts 66°
2026-05-04 15:21 30.00762 119.69629 9714 ft 322 kts 66°
2026-05-04 15:21 30.01614 119.72017 9296 ft 319 kts 66°
2026-05-04 15:21 30.03216 119.76480 8872 ft 299 kts 65°
2026-05-04 15:22 30.04048 119.78520 8588 ft 294 kts 62°
2026-05-04 15:22 30.04991 119.80622 8209 ft 291 kts 61°
2026-05-04 15:22 30.06821 119.84665 7892 ft 279 kts 61°
2026-05-04 15:23 30.07719 119.86652 7892 ft 280 kts 61°
2026-05-04 15:23 30.08619 119.88649 7822 ft 276 kts 61°
2026-05-04 15:23 30.09504 119.90612 7458 ft 276 kts 61°
2026-05-04 15:23 30.10319 119.92422 7074 ft 276 kts 62°
2026-05-04 15:24 30.12078 119.96336 6891 ft 276 kts 62°
2026-05-04 15:24 30.13694 119.99940 6890 ft 275 kts 61°
2026-05-04 15:25 30.14573 120.01902 6888 ft 274 kts 61°
2026-05-04 15:25 30.15451 120.03859 6883 ft 275 kts 61°
2026-05-04 15:25 30.16312 120.05779 6887 ft 275 kts 61°
2026-05-04 15:26 30.18071 120.09711 6883 ft 276 kts 61°
2026-05-04 15:26 30.18869 120.11494 6879 ft 276 kts 61°
2026-05-04 15:26 30.20628 120.15425 6865 ft 276 kts 61°
2026-05-04 15:27 30.21519 120.17421 6871 ft 276 kts 61°
2026-05-04 15:27 30.23262 120.21342 6888 ft 275 kts 61°
2026-05-04 15:28 30.25002 120.25257 6890 ft 274 kts 61°
2026-05-04 15:28 30.25887 120.27247 6881 ft 274 kts 61°
2026-05-04 15:28 30.27622 120.31149 6876 ft 274 kts 61°
2026-05-04 15:29 30.28496 120.33115 6885 ft 274 kts 61°
2026-05-04 15:30 30.31972 120.40966 6890 ft 275 kts 61°
2026-05-04 15:30 30.34572 120.46839 6506 ft 271 kts 61°
2026-05-04 15:31 30.36295 120.50725 5805 ft 267 kts 61°
2026-05-04 15:31 30.37120 120.52596 5638 ft 258 kts 61°
2026-05-04 15:32 30.39456 120.57897 5215 ft 234 kts 62°
2026-05-04 15:32 30.40880 120.61128 4918 ft 218 kts 62°
2026-05-04 15:33 30.41849 120.64173 4908 ft 197 kts 92°
2026-05-04 15:34 30.39197 120.67332 4903 ft 198 kts 155°
2026-05-04 15:34 30.37938 120.67982 4886 ft 197 kts 164°
2026-05-04 15:34 30.35554 120.67017 4791 ft 188 kts 230°
2026-05-04 15:35 30.34236 120.64432 4097 ft 188 kts 244°
2026-05-04 15:35 30.33664 120.63052 3765 ft 187 kts 243°
2026-05-04 15:35 30.33096 120.61713 3445 ft 186 kts 243°
2026-05-04 15:36 30.31947 120.59093 2857 ft 181 kts 241°
2026-05-04 15:36 30.31360 120.57777 2615 ft 183 kts 241°
2026-05-04 15:36 30.30783 120.56486 2397 ft 177 kts 241°
2026-05-04 15:37 30.30237 120.55263 2147 ft 165 kts 241°
2026-05-04 15:37 30.29728 120.54118 1919 ft 152 kts 240°
2026-05-04 15:37 30.29264 120.53075 1703 ft 139 kts 240°
2026-05-04 15:37 30.28829 120.52101 1527 ft 136 kts 239°
2026-05-04 15:38 30.28398 120.51138 1364 ft 135 kts 240°
2026-05-04 15:38 30.27965 120.50166 1192 ft 135 kts 240°
2026-05-04 15:38 30.27539 120.49210 1019 ft 135 kts 240°
2026-05-04 15:38 30.27111 120.48247 843 ft 134 kts 241°
2026-05-04 15:39 30.26685 120.47287 667 ft 134 kts 241°
2026-05-04 15:39 30.26254 120.46317 484 ft 134 kts 241°
2026-05-04 15:39 30.25397 120.44402 169 ft 135 kts 242°
2026-05-04 15:40 30.24989 120.43430 55 ft 134 kts 242°
2026-05-04 15:40 30.24581 120.42567 29 ft 104 kts 243°
2026-05-04 15:40 30.24331 120.41991 29 ft 54 kts 242°
2026-05-04 15:40 30.24232 120.41767 29 ft 17 kts 246°
2026-05-04 15:41 30.24176 120.41631 29 ft 19 kts 244°
2026-05-04 15:41 30.24110 120.41486 29 ft 21 kts 243°
2026-05-04 15:41 30.24041 120.41329 29 ft 22 kts 244°
2026-05-04 15:41 30.23967 120.41162 29 ft 23 kts 244°
2026-05-04 15:42 30.23891 120.41052 29 ft 14 kts 180°
2026-05-04 15:42 30.23855 120.41056 29 ft 1 kts 171°
2026-05-04 15:42 30.23831 120.41064 29 ft 5 kts 161°
2026-05-04 15:42 30.23788 120.41091 29 ft 8 kts 147°
2026-05-04 15:43 30.23730 120.41130 29 ft 7 kts 154°
2026-05-04 15:43 30.23677 120.41162 29 ft 10 kts 150°
2026-05-04 15:43 30.23667 120.41201 29 ft 7 kts 46°
2026-05-04 15:43 30.23714 120.41249 29 ft 10 kts 55°
2026-05-04 15:44 30.23752 120.41335 29 ft 13 kts 65°
2026-05-04 15:44 30.23793 120.41428 29 ft 14 kts 63°
2026-05-04 15:44 30.23844 120.41543 29 ft 17 kts 63°
2026-05-04 15:44 30.23901 120.41670 29 ft 18 kts 62°
2026-05-04 15:45 30.23936 120.41753 29 ft 5 kts 64°
2026-05-04 15:45 30.23947 120.41778 29 ft 5 kts 62°
2026-05-04 15:45 30.23971 120.41829 29 ft 9 kts 63°
2026-05-04 15:45 30.24008 120.41914 29 ft 13 kts 64°
2026-05-04 15:46 30.24057 120.42024 29 ft 17 kts 63°
2026-05-04 15:46 30.24098 120.42117 29 ft 0 kts 63°
2026-05-04 15:46 30.24098 120.42119 29 ft 1 kts 66°
2026-05-04 15:47 30.24096 120.42144 29 ft 5 kts 105°
2026-05-04 15:47 30.24062 120.42185 29 ft 9 kts 139°
2026-05-04 15:47 30.24060 120.42250 29 ft 9 kts 64°
2026-05-04 15:47 30.24067 120.42268 29 ft 3 kts 65°
2026-05-04 15:48 30.24072 120.42309 29 ft 7 kts 104°
2026-05-04 15:48 30.24024 120.42352 29 ft 9 kts 153°
2026-05-04 15:48 30.23995 120.42369 29 ft 0 kts 154°
2026-05-04 15:49 30.23994 120.42370 29 ft 0 kts 154°